VOI141 MMGL-MMMX

Flight info

Callsign VOI141
Flight time 0h 49m
Altitude 37000
Route EMIRI1B EMIRI UT119 ESPOS ESPOS3A
Aircraft A321/M-SDE3FGHIRWY/LB1

Departure

Time 2026-05-06 01:26
Airport Guadalajara International Airport (MMGL)

Arrival

Time 2026-05-06 02:16
Airport Mexico City Benito Juárez International Airport (MMMX)
Time Latitude Longitude Altitude Speed Heading
2026-05-06 00:37 20.52521 -103.30506 5030 ft 0 kts 66°
2026-05-06 01:14 20.52519 -103.30511 5020 ft 2 kts 66°
2026-05-06 01:14 20.52512 -103.30527 5026 ft 2 kts 66°
2026-05-06 01:14 20.52506 -103.30546 5029 ft 3 kts 96°
2026-05-06 01:15 20.52512 -103.30562 5021 ft 3 kts 144°
2026-05-06 01:15 20.52527 -103.30571 5028 ft 1 kts 154°
2026-05-06 01:15 20.52532 -103.30574 5027 ft 0 kts 154°
2026-05-06 01:20 20.52531 -103.30573 5027 ft 1 kts 154°
2026-05-06 01:20 20.52514 -103.30564 5021 ft 4 kts 154°
2026-05-06 01:20 20.52479 -103.30546 5029 ft 7 kts 154°
2026-05-06 01:21 20.52439 -103.30504 5027 ft 9 kts 118°
2026-05-06 01:21 20.52405 -103.30437 5029 ft 10 kts 143°
2026-05-06 01:21 20.52340 -103.30425 5029 ft 10 kts 144°
2026-05-06 01:21 20.52301 -103.30348 5029 ft 13 kts 113°
2026-05-06 01:22 20.52260 -103.30249 5029 ft 15 kts 114°
2026-05-06 01:22 20.52213 -103.30139 5029 ft 17 kts 114°
2026-05-06 01:22 20.52163 -103.30021 5028 ft 19 kts 114°
2026-05-06 01:22 20.52110 -103.29893 5029 ft 18 kts 114°
2026-05-06 01:23 20.52069 -103.29797 5029 ft 14 kts 114°
2026-05-06 01:23 20.52027 -103.29696 5029 ft 16 kts 115°
2026-05-06 01:23 20.51981 -103.29591 5030 ft 10 kts 114°
2026-05-06 01:23 20.51953 -103.29541 5030 ft 8 kts 139°
2026-05-06 01:24 20.51911 -103.29539 5030 ft 3 kts 200°
2026-05-06 01:24 20.51906 -103.29541 5030 ft 0 kts 203°
2026-05-06 01:24 20.51904 -103.29542 5030 ft 1 kts 203°
2026-05-06 01:24 20.51888 -103.29549 5030 ft 4 kts 203°
2026-05-06 01:25 20.51858 -103.29563 5030 ft 6 kts 204°
2026-05-06 01:25 20.51822 -103.29595 5030 ft 7 kts 248°
2026-05-06 01:25 20.51836 -103.29650 5026 ft 8 kts 294°
2026-05-06 01:25 20.51843 -103.29665 5029 ft 3 kts 294°
2026-05-06 01:26 20.51942 -103.29900 5029 ft 70 kts 294°
2026-05-06 01:26 20.52231 -103.30592 5026 ft 131 kts 294°
2026-05-06 01:26 20.52676 -103.31659 5030 ft 177 kts 294°
2026-05-06 01:26 20.53183 -103.32866 5770 ft 176 kts 294°
2026-05-06 01:27 20.53672 -103.34055 6372 ft 175 kts 294°
2026-05-06 01:27 20.54152 -103.35259 6902 ft 178 kts 294°
2026-05-06 01:27 20.54653 -103.36525 7033 ft 193 kts 293°
2026-05-06 01:27 20.55168 -103.37876 7152 ft 205 kts 288°
2026-05-06 01:28 20.55193 -103.39449 7260 ft 221 kts 256°
2026-05-06 01:28 20.54330 -103.40826 7381 ft 240 kts 221°
2026-05-06 01:28 20.52693 -103.41440 7469 ft 267 kts 183°
2026-05-06 01:28 20.50836 -103.40897 7594 ft 293 kts 150°
2026-05-06 01:29 20.49246 -103.39473 8007 ft 303 kts 134°
2026-05-06 01:29 20.47895 -103.37740 8621 ft 305 kts 128°
2026-05-06 01:29 20.46618 -103.35915 9262 ft 307 kts 128°
2026-05-06 01:29 20.45324 -103.34081 9836 ft 311 kts 129°
2026-05-06 01:30 20.43967 -103.32247 10177 ft 324 kts 131°
2026-05-06 01:30 20.42479 -103.30341 10292 ft 344 kts 131°
2026-05-06 01:30 20.40871 -103.28360 10393 ft 362 kts 132°
2026-05-06 01:30 20.39182 -103.26331 10762 ft 369 kts 133°
2026-05-06 01:31 20.37464 -103.24290 11009 ft 371 kts 133°
2026-05-06 01:31 20.35736 -103.22242 11572 ft 373 kts 133°
2026-05-06 01:31 20.34005 -103.20187 12171 ft 372 kts 134°
2026-05-06 01:31 20.32280 -103.18129 12821 ft 372 kts 134°
2026-05-06 01:32 20.30556 -103.16070 13468 ft 372 kts 134°
2026-05-06 01:32 20.28823 -103.13997 13946 ft 377 kts 131°
2026-05-06 01:32 20.27664 -103.12611 14247 ft 379 kts 132°
2026-05-06 01:32 20.25891 -103.10487 14620 ft 386 kts 133°
2026-05-06 01:33 20.24097 -103.08343 15145 ft 389 kts 133°
2026-05-06 01:33 20.21712 -103.05495 15874 ft 390 kts 133°
2026-05-06 01:33 20.20493 -103.04038 16265 ft 391 kts 133°
2026-05-06 01:33 20.18093 -103.01175 17031 ft 392 kts 133°
2026-05-06 01:34 20.16271 -102.99002 17609 ft 393 kts 133°
2026-05-06 01:34 20.15036 -102.97531 18002 ft 394 kts 133°
2026-05-06 01:34 20.13212 -102.95360 18522 ft 395 kts 134°
2026-05-06 01:34 20.11383 -102.93179 19058 ft 396 kts 134°
2026-05-06 01:35 20.09566 -102.91012 19488 ft 398 kts 134°
2026-05-06 01:35 20.07700 -102.88787 19946 ft 400 kts 134°
2026-05-06 01:35 20.05866 -102.86603 20371 ft 402 kts 134°
2026-05-06 01:35 20.03998 -102.84384 20842 ft 403 kts 134°
2026-05-06 01:36 20.02123 -102.82157 21281 ft 405 kts 134°
2026-05-06 01:36 20.00234 -102.79914 21726 ft 407 kts 134°
2026-05-06 01:36 19.98342 -102.77665 22145 ft 409 kts 134°
2026-05-06 01:36 19.96435 -102.75401 22543 ft 411 kts 134°
2026-05-06 01:37 19.94527 -102.73138 22916 ft 413 kts 134°
2026-05-06 01:37 19.92604 -102.70860 23320 ft 415 kts 134°
2026-05-06 01:37 19.90672 -102.68572 23658 ft 417 kts 134°
2026-05-06 01:37 19.88730 -102.66273 23960 ft 419 kts 134°
2026-05-06 01:38 19.86778 -102.63958 24264 ft 422 kts 134°
2026-05-06 01:38 19.84814 -102.61627 24558 ft 425 kts 134°
2026-05-06 01:38 19.82834 -102.59274 24848 ft 427 kts 134°
2026-05-06 01:38 19.80996 -102.56775 25134 ft 433 kts 125°
2026-05-06 01:39 19.79565 -102.53944 25412 ft 439 kts 116°
2026-05-06 01:39 19.78414 -102.50936 25687 ft 442 kts 115°
2026-05-06 01:39 19.77258 -102.47901 25990 ft 445 kts 115°
2026-05-06 01:39 19.76092 -102.44849 26287 ft 447 kts 115°
2026-05-06 01:40 19.74911 -102.41772 26561 ft 450 kts 115°
2026-05-06 01:40 19.73725 -102.38688 26825 ft 453 kts 115°
2026-05-06 01:40 19.72528 -102.35579 27091 ft 456 kts 115°
2026-05-06 01:40 19.71330 -102.32458 27380 ft 459 kts 115°
2026-05-06 01:41 19.70125 -102.29310 27651 ft 461 kts 115°
2026-05-06 01:41 19.68928 -102.26190 27933 ft 463 kts 115°
2026-05-06 01:41 19.67709 -102.23019 28209 ft 466 kts 115°
2026-05-06 01:41 19.66465 -102.19788 28474 ft 468 kts 115°
2026-05-06 01:42 19.65246 -102.16623 28801 ft 471 kts 115°
2026-05-06 01:42 19.63970 -102.13313 29096 ft 473 kts 115°
2026-05-06 01:42 19.62719 -102.10073 29375 ft 476 kts 115°
2026-05-06 01:42 19.61463 -102.06822 29730 ft 476 kts 115°
2026-05-06 01:43 19.60208 -102.03572 30099 ft 476 kts 115°
2026-05-06 01:43 19.58952 -102.00319 30385 ft 477 kts 115°
2026-05-06 01:43 19.57709 -101.97100 30671 ft 477 kts 115°
2026-05-06 01:43 19.56452 -101.93845 30977 ft 477 kts 115°
2026-05-06 01:44 19.55172 -101.90544 31282 ft 477 kts 115°
2026-05-06 01:44 19.53927 -101.87338 31577 ft 477 kts 115°
2026-05-06 01:44 19.52667 -101.84087 31897 ft 477 kts 115°
2026-05-06 01:44 19.51408 -101.80837 32208 ft 476 kts 115°
2026-05-06 01:45 19.50146 -101.77591 32522 ft 476 kts 115°
2026-05-06 01:45 19.48887 -101.74346 32798 ft 476 kts 115°
2026-05-06 01:45 19.47627 -101.71101 33100 ft 476 kts 115°
2026-05-06 01:45 19.46367 -101.67863 33389 ft 476 kts 115°
2026-05-06 01:46 19.45104 -101.64623 33705 ft 475 kts 114°
2026-05-06 01:46 19.43846 -101.61394 34021 ft 474 kts 114°
2026-05-06 01:46 19.42588 -101.58165 34273 ft 474 kts 114°
2026-05-06 01:46 19.41333 -101.54940 34564 ft 473 kts 114°
2026-05-06 01:47 19.40080 -101.51720 34859 ft 473 kts 114°
2026-05-06 01:47 19.38829 -101.48509 35157 ft 472 kts 114°
2026-05-06 01:47 19.37576 -101.45300 35436 ft 471 kts 114°
2026-05-06 01:47 19.36326 -101.42100 35757 ft 469 kts 114°
2026-05-06 01:48 19.35075 -101.38910 36060 ft 468 kts 114°
2026-05-06 01:48 19.33825 -101.35728 36356 ft 468 kts 114°
2026-05-06 01:48 19.32576 -101.32545 36636 ft 467 kts 114°
2026-05-06 01:48 19.31332 -101.29369 36754 ft 467 kts 114°
2026-05-06 01:49 19.28865 -101.23056 36763 ft 467 kts 114°
2026-05-06 01:49 19.26380 -101.16705 36764 ft 467 kts 114°
2026-05-06 01:50 19.23891 -101.10359 36761 ft 467 kts 114°
2026-05-06 01:50 19.21391 -101.04021 36761 ft 467 kts 114°
2026-05-06 01:51 19.18889 -100.97682 36711 ft 467 kts 114°
2026-05-06 01:51 19.16391 -100.91337 36719 ft 467 kts 114°
2026-05-06 01:52 19.13884 -100.84991 36704 ft 468 kts 114°
2026-05-06 01:52 19.11379 -100.78651 36704 ft 468 kts 114°
2026-05-06 01:53 19.08876 -100.72302 36703 ft 468 kts 114°
2026-05-06 01:53 19.06364 -100.65959 36683 ft 468 kts 114°
2026-05-06 01:54 19.03839 -100.59620 36682 ft 468 kts 114°
2026-05-06 01:54 19.01323 -100.53282 36694 ft 467 kts 114°
2026-05-06 01:55 18.98810 -100.46949 36694 ft 467 kts 114°
2026-05-06 01:55 18.96288 -100.40620 36722 ft 467 kts 114°
2026-05-06 01:56 18.95026 -100.37456 36502 ft 467 kts 114°
2026-05-06 01:56 18.93764 -100.34297 36263 ft 467 kts 114°
2026-05-06 01:56 18.92500 -100.31137 36006 ft 467 kts 114°
2026-05-06 01:56 18.91239 -100.27979 35763 ft 467 kts 114°
2026-05-06 01:57 18.89975 -100.24815 35564 ft 468 kts 114°
2026-05-06 01:57 18.88712 -100.21648 35323 ft 468 kts 114°
2026-05-06 01:57 18.87446 -100.18476 35078 ft 469 kts 114°
2026-05-06 01:57 18.86177 -100.15305 34707 ft 469 kts 114°
2026-05-06 01:58 18.84896 -100.12113 33964 ft 475 kts 115°
2026-05-06 01:58 18.83619 -100.08929 33003 ft 480 kts 115°
2026-05-06 01:58 18.82315 -100.05671 32157 ft 483 kts 115°
2026-05-06 01:58 18.81005 -100.02397 31262 ft 486 kts 115°
2026-05-06 01:59 18.79691 -99.99113 30486 ft 485 kts 115°
2026-05-06 01:59 18.78371 -99.95822 29535 ft 488 kts 115°
2026-05-06 01:59 18.77054 -99.92539 28594 ft 482 kts 115°
2026-05-06 01:59 18.75783 -99.89311 27806 ft 470 kts 111°
2026-05-06 02:00 18.74943 -99.86031 27179 ft 458 kts 101°
2026-05-06 02:00 18.74681 -99.82727 26562 ft 447 kts 91°
2026-05-06 02:00 18.74971 -99.79506 25943 ft 438 kts 81°
2026-05-06 02:00 18.75773 -99.76442 25340 ft 429 kts 71°
2026-05-06 02:01 18.76952 -99.73576 24752 ft 420 kts 68°
2026-05-06 02:01 18.78144 -99.70791 24162 ft 414 kts 68°
2026-05-06 02:01 18.79322 -99.68031 23578 ft 411 kts 68°
2026-05-06 02:01 18.80487 -99.65295 22939 ft 406 kts 68°
2026-05-06 02:02 18.81634 -99.62586 22381 ft 404 kts 68°
2026-05-06 02:02 18.82777 -99.59881 21821 ft 404 kts 68°
2026-05-06 02:02 18.83920 -99.57177 21277 ft 403 kts 68°
2026-05-06 02:02 18.85060 -99.54480 20743 ft 401 kts 68°
2026-05-06 02:03 18.86196 -99.51797 20181 ft 400 kts 68°
2026-05-06 02:03 18.87332 -99.49114 19676 ft 399 kts 68°
2026-05-06 02:03 18.88457 -99.46454 19221 ft 397 kts 68°
2026-05-06 02:03 18.89579 -99.43799 18860 ft 390 kts 67°
2026-05-06 02:04 18.90665 -99.41231 18749 ft 376 kts 67°
2026-05-06 02:04 18.91711 -99.38755 18604 ft 362 kts 68°
2026-05-06 02:04 18.92716 -99.36375 18720 ft 349 kts 68°
2026-05-06 02:04 18.93688 -99.34075 18614 ft 337 kts 68°
2026-05-06 02:05 18.94632 -99.31838 18392 ft 329 kts 68°
2026-05-06 02:05 18.95613 -99.29681 17904 ft 330 kts 59°
2026-05-06 02:05 18.97049 -99.27720 16954 ft 345 kts 52°
2026-05-06 02:05 18.98587 -99.25749 16280 ft 343 kts 52°
2026-05-06 02:06 19.00084 -99.23847 16147 ft 331 kts 52°
2026-05-06 02:06 19.01534 -99.22009 16018 ft 320 kts 52°
2026-05-06 02:06 19.02933 -99.20231 15955 ft 309 kts 52°
2026-05-06 02:06 19.04283 -99.18509 15833 ft 299 kts 52°
2026-05-06 02:07 19.05596 -99.16832 15620 ft 294 kts 52°
2026-05-06 02:07 19.06893 -99.15174 15373 ft 289 kts 52°
2026-05-06 02:07 19.08151 -99.13564 15214 ft 281 kts 52°
2026-05-06 02:07 19.09389 -99.11978 14987 ft 278 kts 52°
2026-05-06 02:08 19.10614 -99.10406 14725 ft 276 kts 52°
2026-05-06 02:08 19.11828 -99.08849 14475 ft 274 kts 52°
2026-05-06 02:08 19.13041 -99.07294 14163 ft 275 kts 52°
2026-05-06 02:08 19.14258 -99.05731 13861 ft 276 kts 52°
2026-05-06 02:09 19.15479 -99.04179 13696 ft 274 kts 48°
2026-05-06 02:09 19.17060 -99.03066 13739 ft 279 kts 17°
2026-05-06 02:09 19.18988 -99.02997 13780 ft 283 kts 344°
2026-05-06 02:09 19.20685 -99.04024 13805 ft 285 kts 317°
2026-05-06 02:10 19.22137 -99.05446 13827 ft 280 kts 317°
2026-05-06 02:10 19.23562 -99.06871 13271 ft 286 kts 316°
2026-05-06 02:10 19.24892 -99.08446 12553 ft 290 kts 307°
2026-05-06 02:10 19.26093 -99.10141 11835 ft 292 kts 307°
2026-05-06 02:11 19.27315 -99.11852 11180 ft 290 kts 307°
2026-05-06 02:11 19.28517 -99.13529 10667 ft 283 kts 307°
2026-05-06 02:11 19.29685 -99.15146 10441 ft 269 kts 307°
2026-05-06 02:11 19.30803 -99.16689 10377 ft 259 kts 307°
2026-05-06 02:12 19.31891 -99.18138 10298 ft 244 kts 314°
2026-05-06 02:12 19.33254 -99.19122 9806 ft 235 kts 339°
2026-05-06 02:12 19.34833 -99.19359 9354 ft 226 kts
2026-05-06 02:12 19.36247 -99.18907 9307 ft 202 kts 28°
2026-05-06 02:13 19.37316 -99.18026 9311 ft 191 kts 49°
2026-05-06 02:13 19.38029 -99.16916 9297 ft 177 kts 60°
2026-05-06 02:13 19.38650 -99.15808 9220 ft 173 kts 60°
2026-05-06 02:13 19.39261 -99.14717 9120 ft 173 kts 61°
2026-05-06 02:14 19.39879 -99.13616 8898 ft 174 kts 61°
2026-05-06 02:14 19.40495 -99.12518 8606 ft 173 kts 61°
2026-05-06 02:14 19.41101 -99.11438 8214 ft 168 kts 60°
2026-05-06 02:14 19.41689 -99.10391 7889 ft 163 kts 60°
2026-05-06 02:15 19.42266 -99.09370 7621 ft 159 kts 59°
2026-05-06 02:15 19.42825 -99.08366 7378 ft 157 kts 60°
2026-05-06 02:15 19.43346 -99.07430 7304 ft 121 kts 58°
2026-05-06 02:15 19.43631 -99.06926 7302 ft 52 kts 59°
2026-05-06 02:16 19.43746 -99.06714 7303 ft 48 kts 60°
2026-05-06 02:16 19.43888 -99.06521 7303 ft 18 kts 32°
2026-05-06 02:16 19.43977 -99.06468 7303 ft 14 kts 30°
2026-05-06 02:16 19.44008 -99.06449 7303 ft 2 kts 30°
2026-05-06 02:17 19.44013 -99.06446 7303 ft 2 kts 30°
2026-05-06 02:17 19.44035 -99.06433 7303 ft 6 kts 28°
2026-05-06 02:17 19.44080 -99.06408 7303 ft 9 kts 28°
2026-05-06 02:17 19.44149 -99.06369 7303 ft 13 kts 28°
2026-05-06 02:18 19.44238 -99.06321 7303 ft 16 kts 23°
2026-05-06 02:18 19.44344 -99.06285 7302 ft 13 kts 359°
2026-05-06 02:18 19.44403 -99.06330 7303 ft 12 kts 291°
2026-05-06 02:18 19.44380 -99.06399 7303 ft 11 kts 239°
2026-05-06 02:19 19.44335 -99.06480 7303 ft 15 kts 239°
2026-05-06 02:19 19.44280 -99.06576 7303 ft 13 kts 239°
2026-05-06 02:19 19.44237 -99.06653 7303 ft 13 kts 239°
2026-05-06 02:19 19.44184 -99.06747 7303 ft 17 kts 239°
2026-05-06 02:20 19.44043 -99.06995 7303 ft 21 kts 239°
2026-05-06 02:20 19.43978 -99.07111 7303 ft 16 kts 239°
2026-05-06 02:20 19.43922 -99.07211 7303 ft 15 kts 239°
2026-05-06 02:21 19.43864 -99.07314 7303 ft 18 kts 239°
2026-05-06 02:21 19.43795 -99.07437 7303 ft 21 kts 239°
2026-05-06 02:21 19.43717 -99.07578 7303 ft 23 kts 239°
2026-05-06 02:21 19.43631 -99.07730 7303 ft 24 kts 239°
2026-05-06 02:22 19.43550 -99.07873 7303 ft 20 kts 239°
2026-05-06 02:22 19.43497 -99.07968 7303 ft 6 kts 240°
2026-05-06 02:22 19.43481 -99.07999 7303 ft 7 kts 241°
2026-05-06 02:22 19.43451 -99.08055 7303 ft 11 kts 239°
2026-05-06 02:23 19.43404 -99.08134 7303 ft 15 kts 236°
2026-05-06 02:23 19.43344 -99.08236 7303 ft 18 kts 243°
2026-05-06 02:23 19.43292 -99.08332 7303 ft 12 kts 238°
2026-05-06 02:23 19.43274 -99.08385 7303 ft 6 kts 287°
2026-05-06 02:24 19.43316 -99.08411 7303 ft 8 kts 333°
2026-05-06 02:24 19.43336 -99.08424 7303 ft 1 kts 328°
2026-05-06 02:24 19.43341 -99.08427 7303 ft 0 kts 328°